Location: Newark
(33.6333°S, 78.8500°W)
Time: 16:48:31
(UTC+00:00)

Tiros 1 despin weight - Pass Details

Date: 21 September 2019
Orbit: 593 x 643 km, 48.2° (Epoch: 22 October)

Event Time Altitude Azimuth Distance (km) Brightness Sun altitude
Rises 05:12:56 0° 292° (WNW) 2,868 - -57.2°
Reaches altitude 10° 05:15:18 10° 285° (WNW) 1,977 - -57.1°
Maximum altitude 05:19:39 44° 212° (SSW) 865 - -57.1°
Drops below altitude 10° 05:24:08 10° 139° (SE) 2,023 - -57.0°
Sets 05:26:35 0° 132° (SE) 2,943 - -56.9°
